Flag for Germany Weather past 2 weeks in Coesfeld, North Rhine-Westphalia, Germany

Now
75 °F

Passing clouds.


Feels Like: 78 °F
Forecast: 58 / 72 °F
Wind: 7 mph from Southeast

Location: Rheine-Bentlage

Current Time: Aug 3, 2015 at 11:34:20 AM

Latest Report: Aug 3, 2015 at 10:20 AM


Visibility: N/A

Pressure: 29.98 "Hg

Humidity: 50%

Dew point: 55 °F

Location of CoesfeldLocation

Historic Weather in Coesfeld — Graph

°F

Coesfeld temperature yesterday

Maximum temperature yesterday: 77 °F (at 5:20 PM)
Minimum temperature yesterday: 46 °F (at 5:20 AM)
Average temperature yesterday: 64 °F

Past Weeks' High & Low Weather Summary

 TemperatureHumidityPressure
High79 °F (Jul 24, 4:20 PM)100% (Jul 20, 4:20 AM)30.15 "Hg (Jul 20, 4:20 AM)
Low46 °F (Jul 31, 6:20 AM)34% (Aug 2, 4:20 PM)29.45 "Hg (Jul 25, 10:20 AM)
Average62 °F73%29.86 "Hg
* Reported Jul 19 10:20 AM — Aug 3 10:20 AM, Coesfeld, Weather by CustomWeather, © 2015

Note: Actual official high and low records may vary slightly from our data, if they occured in-between our weather recording intervals... More about our weather records

Advertising

Coesfeld weather history for previous 24 hours

 ConditionsComfort  
Time TempWeatherWind HumidityBarometerVisibility
10:20 AM
Mon, Aug 3
75 °FPassing clouds.7 mph50%29.98 "HgN/A
9:20 AM70 °FPassing clouds.6 mph53%29.98 "HgN/A
8:20 AM66 °FPassing clouds.7 mph56%29.98 "HgN/A
7:20 AM64 °FPassing clouds.6 mph60%29.98 "HgN/A
6:20 AM57 °FPassing clouds.3 mph72%30.01 "HgN/A
5:20 AM57 °FPassing clouds.2 mph77%30.01 "HgN/A
4:20 AM57 °FCool.2 mph77%30.04 "HgN/A
3:20 AM57 °FCool.1 mph77%30.04 "HgN/A
2:20 AM59 °FCool.3 mph77%30.07 "HgN/A
1:20 AM61 °FCool.3 mph68%30.07 "HgN/A
12:20 AM63 °FMild.3 mph64%30.07 "HgN/A
11:20 PM
Sun, Aug 2
64 °FMild.5 mph60%30.07 "HgN/A
10:20 PM66 °FMild.6 mph56%30.07 "HgN/A
9:20 PM68 °FMild.2 mph53%30.07 "HgN/A
8:20 PM73 °FMild.5 mph44%30.07 "HgN/A
7:20 PM75 °FMild.6 mph41%30.09 "HgN/A
6:20 PM77 °FPleasantly warm.5 mph36%30.09 "HgN/A
5:20 PM77 °FPleasantly warm.3 mph34%30.12 "HgN/A
4:20 PM75 °FMild.1 mph34%30.12 "HgN/A
3:20 PM75 °FMild.2 mph36%30.12 "HgN/A
2:20 PM73 °FMild.3 mph38%30.15 "HgN/A
1:20 PM72 °FMild.5 mph41%30.15 "HgN/A
12:20 PM72 °FMild.3 mph44%30.15 "HgN/A
11:20 AM70 °FMild.5 mph46%30.15 "HgN/A
Weather by CustomWeather, © 2015

See weather overviewHow to use our weather pages